User: anonymous   Login
Location: Bonnesvalyn
(49.1218°N, 3.3177°E)
Time: 13:47:43
(UTC+00:00)
Language:

COSMOS 1275 DEB - Orbit

View from above orbital plane
View from above orbital plane
View from above satellite
View from above satellite

Ground track
Ground track

The orbit data is extracted from the following two-line orbital elements,

1 42156U 81053RU  24050.56922575  .00004014  00000-0  24365-2 0  9998
2 42156  82.7522 353.5989 0052199 150.4524 209.9617 14.05402192509551
Epoch (UTC): 19 February 2024 13:39:41
Eccentricity: 0.0052199
inclination: 82.7522°
perigee height: 837 km
apogee height: 913 km
right ascension of ascending node: 353.5989°
argument of perigee: 150.4524°
revolutions per day: 14.05402192
mean anomaly at epoch: 209.9617°
orbit number at epoch: 50955

The dashed part of the orbit path shows where the satellite is in the earth's shadow,  

DLR